Wind_Speed
45 46 46 47 47 48 48 47 48 48 47 46 45 45 45 45 47 46 43 39 34 34 36 38 40 40 40 36 32 33 32 30 28 27 26 27 28 28 29 30 30 31 33 35 38 40 43 48 53 57 60 60 58 55 53 49 47 47 49 51 53 55 56 57 57 57 58 59 58 56 50 46 43 40 38 38 39 40 40 40 42 43 44 45 46 46
46 46 46 46 47 48 48 47 47 46 44 44 43 43 43 44 45 44 42 38 33 34 36 37 40 42 40 36 34 34 32 31 32 29 28 28 27 26 28 29 29 30 32 36 40 42 45 49 53 57 60 62 61 59 57 54 51 50 52 53 53 54 55 55 56 57 57 55 53 49 45 41 39 38 36 36 36 36 37 38 39 41 42 43 43 44
46 45 45 44 46 47 47 45 44 44 43 43 42 42 42 44 44 42 42 38 32 34 36 37 41 42 40 38 36 35 33 34 33 32 32 30 27 27 28 30 30 30 32 37 41 43 45 48 52 57 61 62 62 61 60 57 55 54 53 53 51 52 53 54 54 53 51 49 46 45 43 40 38 37 35 34 35 35 35 36 37 38 39 40 41 41
45 44 42 42 45 46 44 43 43 43 42 42 41 42 43 44 44 43 42 38 32 33 37 40 43 42 40 38 37 38 37 35 32 34 36 32 30 29 29 31 31 30 32 35 40 43 46 48 50 55 59 62 63 61 60 58 57 56 54 52 49 49 51 51 51 50 48 46 45 45 43 40 38 37 36 34 34 34 34 34 35 35 36 37 37 38
43 42 40 41 45 45 43 43 42 42 41 41 41 42 44 44 44 43 41 38 35 35 40 43 42 40 41 39 38 40 39 36 33 36 39 35 33 32 31 32 33 32 32 34 38 41 46 48 48 51 54 58 60 60 59 58 58 57 54 50 47 46 48 49 50 51 49 47 47 46 43 41 39 37 36 35 34 34 34 33 33 33 33 34 34 35
42 40 38 42 45 44 43 43 42 42 42 42 42 43 44 45 44 43 41 40 39 40 43 42 40 41 42 40 40 41 39 36 35 38 40 38 36 33 32 34 36 35 34 36 38 39 42 45 47 49 51 54 56 57 57 57 56 54 51 48 46 46 47 49 50 51 50 48 48 46 45 43 40 37 36 36 35 34 33 33 32 32 31 32 32 33
41 37 38 43 45 44 43 43 43 43 43 43 43 43 45 45 44 43 43 40 40 44 43 40 40 42 41 40 41 41 39 35 35 39 40 39 37 34 33 35 35 36 37 38 38 39 41 44 45 47 48 50 51 52 52 51 50 49 48 47 45 45 46 47 48 49 49 47 46 46 46 44 41 39 38 37 36 35 34 33 32 32 31 31 31 31
40 37 39 44 45 44 44 44 43 43 43 44 44 44 44 45 44 44 44 42 41 44 43 39 40 41 40 41 42 40 39 35 34 37 39 38 38 35 33 34 34 36 38 38 39 41 42 44 45 45 46 47 47 47 47 46 46 45 45 44 44 43 43 43 45 47 48 47 46 47 48 47 45 43 40 39 38 37 35 34 33 32 32 32 32 31
40 39 39 43 45 45 45 45 44 44 44 45 45 45 44 45 46 45 44 42 41 42 41 40 40 40 40 42 42 40 39 36 33 36 38 38 39 36 33 32 32 34 36 37 38 39 41 42 44 45 46 46 46 45 44 44 44 42 42 41 38 36 36 38 42 46 49 50 50 51 52 52 50 47 44 42 40 39 37 36 34 33 32 32 32 32
40 39 38 41 45 45 44 44 44 43 45 46 46 45 45 46 46 44 42 41 40 39 40 42 42 40 39 41 42 39 39 36 34 35 38 39 39 37 34 32 32 33 33 33 33 34 37 39 42 43 44 44 44 43 43 44 43 42 42 40 35 32 32 37 42 46 50 53 53 54 55 55 53 50 47 44 42 41 39 38 36 35 34 33 33 33
40 38 38 41 44 44 44 43 43 43 45 45 45 45 44 45 44 42 40 40 39 38 39 43 44 39 37 40 41 40 40 38 36 36 38 41 41 38 36 36 34 32 30 30 31 32 36 38 40 40 39 39 39 40 41 42 42 42 42 42 38 34 33 36 40 45 50 54 55 56 57 57 55 52 49 46 45 43 41 40 39 37 36 35 34 33
40 38 39 42 44 44 44 43 42 44 45 45 44 43 43 43 42 40 39 40 40 39 41 45 44 39 37 39 41 42 43 40 39 39 39 41 42 40 40 40 37 31 28 28 31 34 37 39 40 38 35 35 36 37 38 39 39 40 40 42 43 39 37 36 37 41 47 52 55 57 56 57 58 54 49 47 46 45 43 43 41 40 38 37 36 35
41 40 41 43 44 44 44 42 41 44 44 43 42 42 42 42 41 39 40 41 41 41 43 44 44 42 40 41 43 45 45 42 41 43 42 42 43 44 44 42 38 33 32 33 35 37 39 39 40 39 37 37 36 36 36 36 36 35 35 38 42 42 40 37 36 40 45 50 53 56 55 56 57 53 49 48 46 46 45 45 44 42 41 39 38 37
41 41 41 42 43 44 44 41 41 43 43 42 42 42 42 42 41 41 41 42 42 41 43 45 44 44 44 44 45 46 46 44 45 47 45 44 45 47 46 42 39 39 40 39 37 38 39 39 40 41 41 40 39 37 36 35 35 34 33 33 37 41 41 38 37 40 44 48 50 52 53 53 53 50 48 48 47 46 46 46 45 45 43 42 41 40
41 40 41 42 42 42 42 42 43 44 42 43 44 42 42 43 43 43 43 44 43 42 44 46 45 46 47 47 48 49 48 47 48 49 47 47 49 49 46 43 42 46 48 44 39 39 40 40 41 42 42 43 43 40 38 37 35 34 33 34 36 39 38 37 38 41 45 49 52 53 53 53 52 51 50 49 48 47 47 47 47 46 45 44 44 43
40 40 42 44 42 40 42 46 46 45 43 44 44 44 45 45 45 45 45 46 45 43 46 47 47 49 49 49 52 52 51 51 51 50 50 51 52 50 47 46 47 50 51 47 44 44 44 43 43 42 42 43 44 43 41 39 36 33 32 34 36 36 35 33 35 42 49 53 56 57 56 54 53 53 52 51 50 49 47 47 47 47 47 46 46 46
41 43 44 44 42 41 45 47 46 46 45 45 47 48 47 46 47 47 47 47 47 47 49 50 50 51 51 52 54 54 54 54 53 52 54 55 54 51 50 50 51 53 53 50 49 49 48 47 47 46 44 44 44 45 44 41 38 35 32 33 34 33 34 34 35 43 50 52 55 56 54 54 54 54 54 53 53 52 50 49 48 48 48 48 48 48
43 45 46 45 44 45 47 47 47 48 48 48 50 51 48 48 49 50 49 50 50 50 52 53 53 53 53 54 55 56 57 57 55 55 56 57 56 55 54 55 55 54 53 52 52 52 52 51 50 49 48 47 46 46 45 43 41 40 36 35 34 31 34 39 44 51 53 50 52 53 52 52 51 50 52 53 53 53 53 52 50 48 48 48 49 49
45 47 47 46 48 49 47 47 49 49 50 52 53 52 51 51 52 52 53 54 54 54 55 55 55 55 55 56 56 57 58 59 59 58 57 57 57 57 58 59 57 56 54 53 53 53 53 52 52 53 51 50 48 47 47 45 44 43 41 39 37 33 34 42 51 58 58 55 55 55 54 53 52 49 49 51 53 53 54 54 53 51 50 49 49 50
47 48 48 48 52 52 49 49 51 52 52 54 55 54 54 54 55 55 56 57 57 57 57 56 56 56 57 57 57 58 59 61 61 60 58 57 55 56 60 60 58 56 55 54 53 53 53 52 53 54 53 51 50 49 49 49 47 46 44 43 43 42 42 45 53 57 57 57 59 60 58 57 56 53 50 50 50 51 53 55 55 54 53 52 52 51
48 48 49 51 54 54 53 53 53 54 55 56 57 57 57 58 58 58 58 58 59 58 57 57 57 57 58 58 59 59 60 61 61 60 59 57 54 56 60 59 56 56 55 54 54 52 52 52 52 53 54 52 51 51 50 51 50 48 47 46 47 49 49 51 56 58 57 58 60 62 62 60 59 59 56 52 49 50 52 54 55 55 55 55 55 54
50 49 51 54 56 56 57 56 53 55 57 58 59 59 60 60 59 59 59 59 60 59 58 58 58 58 58 58 59 60 60 60 59 59 59 57 54 55 58 57 54 54 54 54 53 52 51 51 51 52 53 52 52 51 50 50 50 50 50 49 49 51 52 55 58 60 61 61 60 62 63 61 61 61 60 58 57 57 56 54 54 54 54 55 57 57
54 54 54 56 58 58 58 57 56 58 59 60 60 61 61 60 60 60 59 60 61 60 59 58 59 59 59 58 58 59 60 59 59 59 58 56 54 54 56 56 54 53 53 53 52 51 50 50 50 51 51 51 51 50 50 50 50 50 50 50 50 51 53 55 57 59 62 63 62 63 63 63 64 64 64 64 64 64 61 57 55 54 55 57 58 59
60 59 58 59 60 60 60 60 61 63 63 61 62 63 62 61 61 61 61 61 61 61 59 59 59 60 59 58 58 59 60 59 59 58 57 55 54 54 55 56 55 52 51 51 51 50 50 49 49 49 49 50 50 50 51 52 52 52 52 52 52 52 53 54 55 57 59 60 61 62 62 60 59 61 65 69 69 68 66 63 60 60 60 60 60 60
63 62 60 60 60 60 61 62 64 67 65 61 62 62 61 60 61 60 60 62 61 61 60 60 60 61 60 58 58 59 59 59 59 58 57 56 55 55 56 56 56 54 52 52 52 51 51 50 49 49 50 51 51 52 53 54 54 54 54 54 53 53 53 54 54 55 56 57 57 58 59 58 56 57 64 70 69 67 66 65 64 64 64 62 61 61
64 62 60 60 59 59 61 63 65 66 64 61 60 59 59 61 61 60 62 62 61 61 60 59 61 61 59 58 58 59 59 60 59 58 57 57 56 57 57 57 58 57 55 54 54 54 53 52 51 51 51 52 53 54 54 54 53 54 54 54 54 53 53 54 54 54 55 55 55 55 56 58 59 62 65 66 63 62 62 62 62 62 60 58 58 59
63 62 61 60 59 58 60 63 64 64 63 61 61 59 58 60 60 62 63 61 60 61 59 59 61 60 60 59 59 59 60 60 60 60 59 59 58 58 58 57 59 59 57 57 57 56 55 54 54 53 53 53 54 55 55 54 53 53 53 53 53 53 53 53 54 54 54 54 54 54 55 56 57 59 61 61 59 58 58 57 57 57 56 55 54 55
60 60 60 59 57 57 59 61 63 64 63 62 61 60 59 59 59 61 62 61 61 61 60 61 62 61 62 63 63 62 61 61 62 62 62 61 60 60 58 58 60 61 60 59 60 59 57 57 56 55 54 54 54 55 55 54 54 54 54 54 53 53 53 54 54 54 54 54 54 54 55 56 56 57 58 58 58 57 56 55 54 54 54 53 53 53
55 56 57 56 54 55 56 58 61 63 63 62 61 60 60 61 62 62 62 63 65 63 61 62 63 62 64 66 67 66 63 62 63 64 64 63 63 62 60 60 61 63 62 62 62 61 60 59 58 57 56 55 54 55 55 55 56 56 57 56 55 55 55 54 54 54 54 54 55 55 55 56 56 57 57 57 57 57 56 55 54 54 54 54 54 53
51 52 53 52 52 53 54 56 58 61 62 61 60 60 61 63 64 63 63 64 65 64 64 65 66 66 67 68 69 68 66 64 64 64 65 66 66 65 63 61 62 62 63 64 64 63 63 62 61 58 57 56 56 56 56 56 56 58 58 58 57 57 56 55 54 54 54 54 54 55 55 56 57 57 57 57 56 56 56 55 55 55 55 55 55 55
49 51 50 49 50 51 54 56 57 59 58 57 57 58 60 61 61 62 63 64 65 65 66 68 69 70 70 69 69 69 68 67 66 65 66 67 68 67 65 64 64 64 64 65 65 65 65 65 64 61 58 57 56 56 56 56 57 58 59 60 58 58 57 56 55 54 54 54 54 54 54 55 56 56 56 56 57 56 56 55 55 55 56 56 57 57
48 52 50 48 49 49 51 54 55 55 54 52 54 57 58 59 60 61 62 63 63 64 65 67 69 70 70 68 68 69 69 67 67 67 68 69 70 70 68 67 66 66 67 66 66 67 66 65 65 63 60 58 57 57 57 57 57 58 60 60 59 58 57 56 56 55 54 54 54 54 54 55 56 57 57 57 58 58 57 57 57 57 57 58 58 58
48 51 51 50 48 48 50 51 51 51 49 49 53 56 56 57 58 59 60 61 61 60 61 65 68 68 67 67 67 69 67 66 67 69 71 72 72 72 71 69 67 67 68 68 68 68 67 65 62 62 62 61 59 58 59 58 56 56 59 59 58 58 58 58 58 57 55 55 55 55 55 56 57 58 58 59 60 60 60 60 60 60 60 60 61 61
50 50 52 52 50 49 49 49 50 49 47 49 54 55 54 54 56 57 57 60 61 60 60 64 66 66 65 65 65 66 65 65 66 69 71 72 71 71 72 71 69 67 67 68 69 68 66 64 60 59 60 60 60 61 61 57 53 53 56 58 58 59 60 59 59 58 57 58 58 58 58 59 59 60 60 61 61 61 62 62 62 63 63 63 64 64
53 52 54 54 51 50 49 49 50 49 48 52 55 54 53 53 55 56 58 60 63 62 61 63 63 61 61 62 61 61 62 63 64 67 70 71 69 70 71 72 71 69 67 66 66 66 64 62 59 57 58 58 60 61 60 55 52 53 56 58 59 60 60 60 60 60 61 62 62 61 61 61 61 61 62 62 62 62 63 63 64 64 65 65 66 66
57 56 57 56 53 52 52 52 51 51 52 55 55 53 54 55 55 56 59 61 63 63 62 62 61 58 58 60 59 58 59 61 63 65 69 70 68 67 69 71 71 70 68 65 64 64 63 62 62 61 59 57 58 58 57 54 54 56 58 59 58 60 62 63 63 63 63 64 64 64 64 64 63 64 64 65 65 65 65 65 65 66 66 66 67 67
60 60 60 59 57 55 56 55 53 53 56 58 58 56 56 57 56 57 59 61 62 62 62 62 60 58 57 59 59 59 60 62 63 64 66 68 67 67 68 70 71 71 70 68 66 65 64 64 65 65 61 57 55 55 56 55 55 57 59 60 61 62 64 65 66 65 64 64 65 66 67 67 67 67 67 68 68 68 68 68 68 68 68 68 68 68
64 65 64 63 60 58 58 57 56 57 59 61 62 60 59 60 61 60 62 64 63 62 62 62 62 62 60 60 61 61 63 64 64 63 63 64 66 67 68 70 72 73 73 71 70 69 67 66 67 67 64 60 57 57 57 58 58 59 61 64 66 66 66 66 66 66 67 67 67 68 69 70 70 70 70 71 71 72 72 71 71 71 70 70 69 69
68 69 68 66 63 62 61 61 60 61 63 64 64 63 62 64 65 64 65 66 64 63 64 64 65 66 65 64 64 65 67 67 65 62 62 64 65 67 69 70 71 72 73 72 71 71 70 69 68 69 68 65 63 62 61 62 62 62 63 66 67 68 67 67 67 69 70 71 70 71 72 72 72 73 73 73 74 74 75 75 74 74 74 73 71 71
70 71 70 68 66 65 65 65 65 65 66 66 66 66 65 66 68 68 68 67 66 66 66 66 67 69 69 69 68 69 70 69 67 65 65 66 68 69 71 71 71 72 73 73 73 72 72 72 71 72 71 69 68 67 66 65 64 65 66 68 69 69 70 70 71 72 73 73 73 73 73 74 75 75 75 75 76 76 76 76 76 76 76 75 74 73
70 71 71 70 69 69 68 68 69 69 69 69 69 69 67 67 69 71 71 69 68 69 68 68 70 71 72 72 72 72 72 71 70 69 69 70 72 73 73 73 74 74 75 76 75 75 75 76 75 75 74 73 72 71 70 69 68 68 69 71 72 73 73 73 74 75 75 75 75 76 76 76 77 77 77 77 77 77 77 77 77 77 77 77 76 74
71 71 71 71 71 71 70 71 72 72 71 70 70 70 69 70 71 72 72 72 72 72 71 71 72 73 74 74 74 74 74 74 74 75 75 75 76 77 77 77 77 77 78 78 78 78 78 78 79 78 77 77 76 75 74 73 73 72 72 73 74 75 75 75 76 77 78 78 78 78 78 78 78 78 79 78 78 78 77 77 77 77 77 77 76 75
73 72 72 72 72 71 73 74 74 74 73 72 72 72 71 71 72 72 73 73 73 73 73 74 75 75 75 75 75 75 76 77 78 79 79 79 78 79 79 80 80 80 80 80 81 81 81 81 81 81 80 80 79 78 77 77 76 74 73 73 75 77 78 79 80 80 81 81 80 80 79 79 78 78 78 79 78 78 77 76 76 76 76 77 76 74
74 73 72 72 72 72 75 77 77 78 77 75 73 73 72 71 72 72 72 73 74 75 76 78 79 79 78 77 77 77 78 79 79 80 80 81 80 80 81 81 82 82 83 83 83 83 83 83 83 82 82 82 82 81 80 79 78 76 75 75 76 79 81 82 83 83 83 82 80 79 78 78 78 78 78 78 78 77 76 75 74 74 75 75 74 73
75 73 72 73 73 74 76 79 78 79 79 76 74 74 73 73 73 72 73 74 75 77 79 80 81 81 80 79 78 78 78 79 79 80 81 82 83 83 83 83 84 84 85 85 85 85 85 84 83 82 83 84 84 84 83 82 81 80 79 78 79 80 82 83 83 83 82 81 79 79 78 78 77 77 77 77 76 76 75 73 72 72 72 72 72 72
73 73 74 74 75 74 76 78 77 77 78 77 77 77 76 75 74 73 73 75 77 78 79 79 79 79 79 79 79 79 79 79 79 80 82 83 84 85 85 85 85 86 86 86 87 87 86 85 83 82 83 84 85 86 86 85 84 83 82 81 80 80 80 81 81 81 80 80 79 78 78 77 76 76 75 75 75 74 72 71 70 70 70 71 72 71
70 72 73 73 73 73 75 76 75 75 77 78 79 78 77 75 73 72 73 74 75 76 77 78 79 79 79 79 80 79 79 79 79 80 81 82 83 84 85 85 86 87 88 87 87 86 85 84 83 83 83 84 84 86 86 86 85 84 83 82 80 79 79 78 79 78 78 78 78 77 76 75 74 74 74 73 72 70 68 67 67 68 68 69 69 68
65 67 68 69 70 71 73 73 72 73 75 76 76 75 73 72 71 70 69 70 71 72 74 75 77 78 78 79 79 78 77 78 78 78 78 79 80 81 83 84 84 85 86 86 86 84 83 82 82 82 82 81 81 82 83 83 83 82 81 80 79 78 77 76 76 75 75 75 75 74 73 72 72 72 72 71 69 66 65 64 65 66 66 66 66 65
60 61 63 65 67 69 70 69 68 68 70 71 71 71 70 69 68 67 66 66 67 68 69 70 72 73 74 75 76 75 74 74 75 74 74 75 76 77 78 79 80 81 81 82 82 81 79 78 78 78 78 77 77 77 78 78 78 78 78 77 76 75 73 73 73 72 72 71 71 71 70 69 69 70 69 67 65 64 64 64 64 64 64 63 63 61
56 57 58 61 63 64 64 63 63 63 65 67 67 67 66 65 64 63 64 64 64 64 64 65 67 68 68 69 70 70 70 71 71 71 71 71 71 72 73 73 74 76 76 77 76 76 75 74 73 72 73 73 72 72 72 72 72 73 73 73 73 71 70 69 69 69 69 68 68 68 67 67 68 68 66 63 62 63 63 63 63 62 61 60 59 58
50 51 53 55 55 55 56 56 56 58 60 62 62 62 62 61 60 59 60 60 60 60 61 61 62 62 63 64 64 65 65 66 67 68 69 68 68 68 68 68 69 71 71 71 71 71 71 71 70 69 68 68 67 67 67 68 68 69 69 68 68 68 68 67 66 66 66 66 67 66 66 66 66 66 64 61 61 62 62 61 61 60 58 57 57 56
Wind_Direction
256 256 257 258 259 259 259 258 258 258 259 260 259 260 261 263 263 263 263 259 257 257 259 265 269 268 266 266 266 263 263 267 264 257 253 250 247 246 246 243 239 238 236 233 230 229 227 224 224 223 224 228 234 247 259 265 269 271 273 275 277 279 280 280 280 281 281 281 281 281 281 283 282 280 278 278 277 277 275 272 270 268 267 265 263 261
256 256 257 258 259 258 257 256 257 258 258 258 257 258 259 262 264 265 265 261 257 255 255 260 267 270 269 268 265 264 265 266 264 260 256 252 250 249 248 245 239 234 231 230 228 227 228 227 226 227 229 232 237 246 256 262 267 270 274 276 278 280 281 282 283 283 282 282 282 284 285 285 285 283 281 279 278 277 275 273 270 268 267 265 263 262
255 256 256 257 257 256 256 255 256 256 256 256 257 257 258 260 264 265 265 263 259 261 262 262 265 268 268 267 266 264 262 261 263 265 260 252 250 248 248 249 245 238 232 230 230 227 229 230 230 231 233 236 240 246 253 259 264 269 273 276 278 280 282 282 282 281 281 282 286 290 290 288 287 286 284 282 281 280 278 275 273 270 268 267 265 263
254 254 255 255 255 254 254 254 253 254 254 256 256 258 259 261 263 264 265 266 263 264 267 265 263 265 267 267 268 267 263 260 260 263 262 255 250 248 248 252 251 246 239 235 233 230 230 232 233 234 236 239 243 247 252 257 262 267 271 274 277 278 280 280 279 278 280 283 288 291 290 289 288 288 288 286 285 284 282 280 277 274 271 269 267 265
253 253 252 252 252 252 252 251 252 253 253 255 256 258 260 261 262 264 266 267 264 262 263 263 264 267 268 268 269 268 266 263 260 260 262 258 252 248 248 252 253 250 247 244 240 235 233 233 235 237 238 240 242 246 250 254 259 263 266 269 271 273 274 276 277 279 280 283 288 289 288 287 287 288 289 289 288 286 285 283 281 278 275 272 269 267
252 252 251 250 249 250 251 251 251 252 252 253 255 258 260 261 263 265 265 264 265 263 261 263 267 268 269 269 268 267 266 266 265 263 262 261 257 251 248 249 250 250 249 248 246 244 243 240 240 241 241 241 242 245 248 252 256 259 261 263 266 268 269 272 275 279 280 283 287 287 285 285 285 286 287 288 288 287 286 285 284 281 278 274 271 268
252 250 249 249 249 249 250 251 251 252 253 254 255 257 259 262 264 265 264 263 264 264 263 265 267 267 268 269 267 267 267 266 266 266 265 265 263 258 253 251 250 250 250 249 249 249 249 249 247 247 246 245 245 246 248 250 253 255 257 260 264 266 268 270 273 277 279 283 287 285 283 284 284 284 284 284 285 285 285 285 284 283 280 277 273 270
250 248 246 248 251 251 250 250 251 252 253 254 255 257 260 262 263 263 264 263 263 265 267 266 266 267 268 267 266 268 269 267 267 268 268 268 266 263 258 256 253 252 251 251 251 250 250 250 250 250 250 249 248 247 247 248 250 253 256 259 261 265 267 269 273 278 282 285 288 286 284 284 284 283 281 280 281 282 283 283 283 282 280 278 275 271
249 247 246 249 251 251 251 252 252 253 254 255 256 258 259 260 261 261 263 264 264 265 268 267 264 264 265 267 268 269 270 270 269 269 269 269 268 266 263 260 258 256 256 254 253 255 255 254 253 252 251 250 250 249 249 249 250 252 255 257 260 263 266 272 277 282 285 285 287 288 286 285 285 282 279 277 277 277 279 280 280 280 278 277 274 271
249 248 248 250 252 253 253 255 255 256 256 256 257 257 258 259 260 262 263 263 263 264 266 266 263 262 265 268 271 272 272 271 269 268 270 270 269 269 267 264 260 258 260 260 260 262 262 261 258 255 254 254 254 254 254 253 253 252 253 253 254 253 258 272 279 282 285 285 284 287 287 286 285 281 278 275 274 274 275 276 277 277 276 275 273 271
251 251 250 250 253 255 255 255 256 256 255 255 256 257 257 258 259 261 262 262 263 263 264 265 264 264 266 269 271 273 271 271 269 267 269 270 270 270 268 265 261 258 260 263 265 266 265 263 260 259 260 261 261 260 259 259 257 255 253 251 248 245 251 265 275 280 285 285 284 285 285 285 285 282 277 274 272 271 271 272 273 274 275 274 273 270
252 252 252 253 254 255 256 256 256 255 254 254 254 255 256 257 258 260 261 262 263 264 263 265 267 269 268 269 270 270 270 271 271 269 268 269 271 271 269 266 263 260 258 259 260 261 261 263 264 263 262 262 262 261 261 261 259 258 255 251 249 246 246 256 269 277 283 285 285 285 284 284 285 282 277 273 271 270 269 269 269 270 271 272 272 270
254 252 253 254 256 257 257 256 255 254 254 254 253 253 254 256 258 259 260 261 262 264 265 267 270 271 270 269 269 270 271 272 272 270 269 269 271 271 269 269 269 267 261 253 251 253 257 262 267 268 264 260 259 259 261 262 262 261 259 256 253 249 245 252 266 275 282 285 285 284 283 283 284 282 278 274 271 269 268 267 267 267 267 267 268 269
254 253 253 255 257 258 258 257 254 253 253 254 254 253 255 257 258 258 260 261 262 264 267 269 270 272 271 271 270 270 271 271 271 270 270 271 270 270 271 274 276 274 267 258 252 252 254 256 260 263 265 264 262 260 261 262 263 264 265 263 261 256 248 249 261 272 280 284 282 282 282 281 281 281 279 276 273 270 268 266 266 265 264 263 263 263
254 255 255 254 254 256 258 258 255 253 252 252 253 254 255 257 258 260 261 262 263 265 267 269 270 271 271 271 271 270 270 270 270 270 272 272 271 271 273 276 275 272 269 266 262 260 258 256 255 256 260 263 264 263 261 261 262 264 265 264 264 264 256 251 259 272 280 280 278 279 279 278 279 279 279 277 275 272 269 267 266 264 263 261 260 259
255 255 255 254 253 253 256 256 255 254 253 253 254 253 254 256 258 259 261 263 265 266 267 267 269 269 270 271 271 272 272 271 271 273 273 272 271 273 274 274 271 269 270 270 269 266 264 262 259 257 256 258 260 262 260 259 258 258 260 260 260 260 257 254 260 271 276 275 275 276 275 274 276 276 276 275 275 274 271 268 266 264 262 261 259 258
255 255 255 255 256 254 253 254 256 256 255 254 254 253 253 255 258 259 261 263 264 265 265 266 267 268 269 270 270 272 272 272 273 273 272 272 273 273 272 270 268 268 270 271 270 269 267 266 264 262 259 258 258 258 259 257 255 252 250 254 257 253 252 255 255 256 263 269 271 272 272 272 273 272 272 272 271 271 271 269 267 265 263 262 260 258
254 256 257 257 257 255 253 254 255 256 256 255 254 254 255 256 258 260 261 262 263 263 264 265 266 267 268 268 269 270 271 271 271 270 270 272 273 273 271 269 267 267 269 269 269 269 269 268 267 266 264 262 260 259 258 256 255 252 247 248 252 253 257 262 257 251 255 262 265 268 270 269 269 268 268 268 267 267 268 268 267 266 265 263 261 259
254 256 258 259 259 256 256 256 256 256 256 255 255 255 256 257 258 260 261 262 263 264 264 265 266 266 267 267 268 270 271 271 270 269 269 270 271 272 271 269 268 268 268 267 267 268 268 269 269 268 267 266 264 263 261 258 255 253 249 245 244 244 250 257 258 257 257 258 260 263 265 265 265 266 266 267 267 266 266 266 265 265 265 264 263 261
256 258 259 260 259 258 257 256 256 256 256 257 258 258 258 258 259 260 261 263 264 264 265 265 266 267 267 268 269 270 271 271 271 270 269 268 268 269 268 268 268 268 268 267 267 267 268 269 269 269 268 267 266 265 264 262 259 255 251 247 241 238 239 245 252 256 256 256 258 259 259 258 260 262 265 267 267 267 265 263 263 263 263 263 264 262
258 259 260 259 258 259 257 255 255 258 258 259 260 260 260 259 260 261 262 263 264 265 265 266 267 267 268 269 270 270 270 270 270 271 269 267 266 266 266 267 267 267 267 267 267 267 267 267 267 268 269 268 267 266 265 264 263 260 256 252 247 243 241 242 247 252 253 253 255 256 255 255 256 257 260 262 264 266 264 262 260 261 262 262 262 262
259 258 259 259 259 259 258 257 257 258 259 259 259 260 261 261 261 262 264 265 265 266 267 268 268 268 269 269 269 269 269 269 269 268 268 268 266 265 266 266 266 265 266 266 266 266 265 265 266 266 268 269 269 268 267 265 264 262 260 257 253 250 248 247 248 251 253 253 254 254 255 255 255 257 258 259 261 263 263 262 259 257 260 261 261 261
259 258 257 259 260 261 262 262 261 259 259 260 260 260 261 263 264 265 265 266 266 267 267 268 268 268 267 267 267 268 268 267 267 266 268 269 268 267 267 267 266 266 266 266 266 266 265 265 266 267 267 269 269 269 269 268 266 265 264 261 258 256 254 253 253 253 255 255 255 255 255 256 257 258 258 258 260 261 262 264 262 259 261 263 262 260
261 258 257 259 261 262 263 264 262 260 259 260 262 263 265 266 267 267 266 266 266 267 267 266 266 266 266 266 266 266 266 266 266 267 268 268 268 268 268 269 269 268 268 268 268 267 266 266 266 266 266 267 268 269 269 270 270 269 268 266 263 261 259 257 256 256 256 256 256 257 256 256 257 259 259 257 258 260 263 265 265 263 264 265 262 260
261 260 260 260 261 263 263 263 262 262 262 263 264 266 267 266 265 265 265 265 265 266 266 266 266 265 266 266 266 266 266 266 266 267 268 268 267 267 267 269 270 269 268 267 267 267 267 267 266 266 266 267 268 269 270 270 270 270 269 268 266 264 263 261 259 257 257 256 256 257 256 254 251 252 256 258 259 260 262 263 264 265 266 265 261 259
264 263 262 261 261 261 262 262 262 264 265 263 262 263 263 264 264 264 263 264 266 267 267 267 266 267 267 267 267 267 267 267 267 266 266 267 267 267 267 268 269 269 268 268 267 267 267 267 267 267 268 270 270 270 270 270 270 270 269 268 267 265 263 262 261 259 258 257 256 255 255 254 253 253 256 261 262 261 261 262 263 264 264 263 261 260
267 265 263 261 260 260 260 261 262 263 263 263 262 261 261 262 264 264 264 265 265 265 266 266 266 267 267 266 265 264 265 266 267 266 265 265 265 266 267 268 269 269 269 268 268 268 267 268 268 268 270 271 271 271 271 270 270 268 267 266 265 265 263 262 261 260 260 259 257 256 255 255 256 257 259 261 262 262 261 261 261 262 263 262 262 262
265 265 264 262 261 260 260 261 262 262 262 262 262 262 261 261 261 262 264 264 263 262 263 264 265 266 266 266 264 263 262 264 265 266 266 265 265 265 266 267 268 269 269 269 269 269 269 269 269 269 270 271 271 271 271 269 267 266 265 264 262 261 261 261 261 260 260 260 259 259 258 257 257 257 259 261 262 262 263 262 262 262 262 262 262 262
263 264 264 264 263 261 260 260 261 262 262 262 262 261 261 261 259 259 260 261 262 263 264 264 264 264 264 264 264 264 263 263 264 265 266 266 266 266 265 265 266 268 270 270 270 270 270 270 270 270 270 270 270 270 269 268 267 266 265 264 262 260 259 259 259 260 260 260 260 260 260 260 259 259 259 260 262 262 263 263 263 263 263 263 262 261
264 264 263 263 263 262 261 260 259 259 260 261 262 262 261 260 260 260 260 260 262 263 263 262 261 261 261 262 263 265 265 264 264 265 266 267 267 268 268 267 267 268 269 270 271 271 271 270 269 269 269 269 268 267 266 266 266 266 265 264 263 262 261 259 258 258 258 259 259 260 261 261 261 261 261 261 261 262 262 263 263 263 263 263 263 262
263 263 262 261 260 259 259 259 259 259 260 261 263 263 263 262 262 262 261 260 260 260 260 260 261 260 260 261 263 265 266 266 266 266 266 267 267 267 267 266 266 266 266 267 268 270 270 271 271 270 269 268 266 265 264 264 264 264 265 264 264 263 262 261 260 258 258 258 258 259 260 262 262 263 263 263 262 262 262 262 262 262 262 263 263 262
260 262 261 259 259 258 258 258 260 261 262 263 263 262 262 262 262 261 261 260 259 259 260 261 261 262 262 263 263 264 264 266 266 266 265 264 264 265 265 265 266 267 267 267 268 268 269 271 272 272 271 268 264 262 261 261 262 263 264 264 265 265 265 264 262 260 259 259 260 260 261 262 263 264 264 265 265 264 264 263 263 262 262 262 262 262
257 259 261 260 260 259 259 259 260 261 263 263 261 260 260 261 261 262 263 263 263 262 261 261 261 261 262 263 263 263 263 264 264 265 265 266 266 267 268 268 267 267 268 268 268 267 267 267 268 269 269 268 265 262 260 259 260 262 264 265 266 266 265 265 264 264 264 263 263 263 263 263 263 264 265 265 266 266 266 266 265 264 263 263 263 263
255 256 259 260 260 260 261 262 262 263 263 261 260 259 260 261 262 263 264 264 264 262 260 259 260 260 261 261 262 263 264 264 265 266 267 267 268 270 270 270 268 267 267 267 267 267 267 266 265 265 265 266 267 265 264 263 262 262 263 264 264 264 264 266 267 268 268 267 267 266 266 266 265 265 265 265 265 266 266 266 266 265 265 264 264 263
258 257 257 258 259 261 262 262 263 263 262 260 259 260 260 260 260 261 261 261 262 262 261 260 260 262 263 264 263 264 265 265 265 265 265 266 267 268 270 270 270 269 267 266 267 268 268 268 266 264 263 263 265 266 266 266 264 261 259 260 262 264 266 267 268 269 270 271 271 270 270 269 268 267 266 266 265 265 265 265 265 265 265 264 264 264
260 259 259 259 259 259 259 260 261 262 261 261 260 261 261 260 260 260 261 261 262 263 263 264 264 265 265 266 266 265 265 264 264 263 264 266 267 268 269 270 271 271 270 269 268 269 269 270 268 266 263 262 263 265 267 266 264 262 261 261 262 264 266 267 268 269 270 272 273 273 272 271 271 270 270 269 268 267 266 266 265 265 264 264 263 263
263 262 261 260 259 258 258 258 258 259 261 262 262 260 260 261 261 261 262 262 262 264 265 267 268 267 266 266 266 266 264 263 262 262 264 266 267 268 269 270 271 272 272 272 271 271 270 270 269 268 267 265 265 266 266 264 263 263 264 265 264 264 265 267 269 270 270 271 272 273 274 274 273 273 273 273 272 271 270 269 267 266 265 264 264 263
264 263 262 262 261 260 260 260 259 259 259 260 261 261 261 261 260 260 260 261 262 264 265 266 267 267 266 266 266 265 264 263 262 263 264 265 267 267 268 268 269 270 271 272 272 272 271 271 271 271 271 269 267 266 264 264 263 262 263 264 264 265 266 267 270 271 272 271 271 272 273 273 274 274 275 275 275 275 274 273 271 270 269 267 266 265
264 264 264 264 263 263 262 262 261 260 260 260 260 261 261 261 261 260 260 261 262 263 264 265 267 267 266 265 265 264 264 264 264 265 266 266 266 266 266 266 267 268 269 270 270 271 271 271 270 271 271 271 269 267 265 264 264 264 264 265 266 268 269 270 270 270 271 271 271 271 272 273 274 274 275 275 275 275 275 275 274 273 272 271 270 268
264 265 265 265 265 264 264 263 262 261 261 261 261 261 261 261 262 262 262 262 263 263 263 264 265 265 266 265 265 264 264 265 265 265 265 265 264 264 265 265 266 267 267 268 268 269 270 270 269 269 270 270 270 269 268 267 267 267 268 268 268 269 269 270 270 270 270 271 272 273 273 274 274 274 274 274 274 274 274 274 274 274 273 273 272 271
263 264 265 266 266 265 265 264 263 262 261 261 262 262 262 262 263 263 263 263 263 262 262 262 263 264 264 265 265 266 266 266 266 266 265 264 264 264 264 264 265 265 266 267 267 268 268 269 269 269 269 270 269 269 269 269 269 268 268 269 269 269 270 270 271 272 272 273 273 273 273 273 273 273 274 274 274 274 274 274 274 273 273 273 272 272
263 264 265 266 266 266 266 265 265 264 263 262 262 262 262 262 262 263 264 264 263 263 263 262 261 262 263 264 265 266 266 266 266 265 264 263 263 263 264 263 264 264 265 266 267 267 268 268 269 269 269 269 269 269 269 269 268 268 269 270 271 272 272 272 272 272 272 272 272 272 272 273 273 273 274 274 274 273 273 273 273 272 272 272 272 271
264 264 264 265 266 267 268 267 267 266 265 263 262 262 261 261 262 262 263 264 265 265 265 264 262 261 261 261 262 263 263 263 263 263 263 263 263 264 265 265 265 265 265 266 267 268 268 268 269 269 270 270 270 270 270 270 269 270 270 271 272 273 273 273 273 272 272 272 272 272 272 273 273 273 273 273 273 272 272 271 271 271 271 270 270 270
264 264 265 266 266 267 267 267 267 267 266 265 264 263 263 263 263 262 262 263 264 264 264 263 263 262 260 259 259 260 260 261 262 263 264 265 265 265 265 266 266 266 266 266 267 267 267 268 269 270 271 272 272 272 272 272 272 272 271 271 271 271 271 271 271 271 272 272 272 273 273 273 273 272 272 271 271 270 269 269 268 268 268 269 269 269
265 265 266 266 266 265 265 266 266 267 268 268 268 267 266 265 264 263 262 262 262 262 261 261 261 261 261 261 261 260 260 261 262 263 264 265 265 265 264 264 265 265 266 266 266 267 267 268 269 270 271 272 273 274 274 273 273 272 271 270 269 269 269 270 271 272 273 273 274 273 273 272 271 270 269 269 268 268 267 267 267 267 267 268 268 267
264 265 265 265 265 265 265 266 267 268 269 269 269 268 266 265 264 263 263 262 262 262 262 263 263 263 264 264 263 262 261 261 261 261 262 262 263 264 264 264 265 265 265 265 266 266 267 268 268 269 269 270 271 272 272 272 272 272 271 271 270 270 270 271 272 272 272 272 272 271 270 269 269 268 268 267 267 267 267 267 267 267 267 266 266 266
264 264 265 265 266 266 266 266 267 267 267 267 267 266 266 265 265 264 263 263 264 264 265 266 266 266 266 265 264 264 263 262 261 261 261 261 262 263 264 264 265 265 266 266 266 266 267 268 268 268 267 267 268 269 270 271 271 272 272 272 271 271 270 270 270 270 270 269 269 269 269 269 268 268 268 267 267 267 267 268 267 266 266 265 266 267
264 264 266 267 267 266 266 266 265 265 266 267 267 268 268 268 268 267 266 265 265 264 264 265 265 266 266 266 265 265 264 264 263 263 262 262 262 263 264 264 264 265 265 266 266 267 267 267 267 267 267 266 267 267 268 269 270 270 271 270 270 269 269 268 268 268 267 268 268 268 268 268 268 267 267 267 268 268 268 267 266 265 265 265 265 266
266 266 266 266 266 265 266 266 267 267 268 268 269 269 270 270 270 269 269 268 267 266 265 265 265 265 265 265 266 266 266 266 266 265 264 264 263 263 263 264 265 265 265 266 267 267 267 267 267 267 267 267 267 266 266 267 268 268 269 269 269 268 268 267 267 267 267 267 267 267 267 267 267 267 266 267 267 268 267 266 265 264 264 265 265 266
267 266 265 265 265 266 267 268 269 269 270 270 270 270 270 270 270 270 270 269 268 267 266 266 265 265 265 266 266 267 267 268 268 267 266 265 265 264 264 264 265 265 266 266 267 268 268 268 267 267 267 266 266 266 266 266 267 267 267 267 267 268 267 266 266 266 266 266 266 266 266 266 266 266 266 266 266 266 266 265 265 265 265 266 266 266
267 266 266 266 267 268 270 270 270 269 270 270 271 272 272 273 272 271 271 270 269 269 268 268 267 267 267 267 266 266 267 267 267 267 267 267 266 266 265 265 265 265 265 266 266 267 268 268 268 267 267 266 266 266 266 266 266 266 266 266 266 266 266 266 265 265 265 265 265 264 264 264 264 266 267 267 267 266 265 265 265 266 266 265 265 264
Height
10596 10597 10599 10600 10601 10601 10603 10604 10603 10604 10606 10607 10608 10606 10604 10604 10602 10606 10612 10618 10620 10618 10616 10612 10610 10612 10613 10616 10618 10616 10617 10619 10622 10624 10624 10624 10625 10625 10624 10625 10627 10629 10630 10631 10632 10633 10633 10635 10636 10637 10636 10636 10639 10639 10639 10639 10639 10639 10638 10638 10638 10636 10637 10638 10640 10641 10641 10641 10642 10644 10645 10644 10643 10643 10642 10640 10636 10635 10634 10633 10632 10630 10630 10630 10630 10631
10591 10593 10594 10596 10595 10595 10596 10598 10598 10599 10601 10601 10602 10602 10601 10598 10597 10601 10605 10611 10615 10613 10612 10611 10607 10607 10609 10612 10613 10612 10614 10615 10616 10619 10620 10620 10621 10622 10621 10621 10624 10625 10627 10627 10628 10629 10630 10631 10633 10633 10632 10633 10636 10637 10636 10636 10636 10635 10634 10635 10635 10633 10633 10634 10636 10637 10637 10638 10637 10637 10638 10638 10636 10636 10636 10635 10633 10632 10631 10630 10629 10628 10626 10626 10626 10626
10586 10588 10590 10591 10588 10588 10590 10593 10593 10594 10595 10595 10596 10597 10596 10594 10594 10597 10598 10603 10610 10608 10607 10607 10603 10602 10605 10607 10608 10609 10610 10610 10612 10614 10615 10617 10618 10618 10618 10617 10620 10622 10623 10623 10623 10625 10626 10626 10629 10630 10630 10631 10633 10633 10632 10632 10633 10633 10632 10632 10631 10630 10629 10630 10632 10633 10634 10635 10634 10632 10632 10632 10631 10630 10630 10630 10628 10628 10627 10626 10625 10624 10624 10622 10622 10622
10580 10583 10585 10585 10581 10582 10585 10587 10588 10589 10590 10591 10592 10591 10590 10590 10590 10592 10593 10598 10604 10604 10601 10598 10597 10599 10600 10602 10603 10603 10603 10605 10609 10609 10608 10612 10614 10615 10615 10614 10615 10618 10619 10620 10620 10621 10622 10622 10625 10626 10626 10627 10628 10629 10629 10630 10630 10630 10630 10629 10629 10628 10627 10628 10629 10630 10632 10632 10631 10629 10628 10627 10627 10625 10625 10625 10624 10624 10623 10622 10621 10621 10620 10619 10618 10618
10574 10577 10580 10579 10575 10577 10580 10581 10583 10584 10586 10586 10586 10586 10584 10584 10585 10588 10591 10593 10596 10597 10593 10590 10594 10596 10595 10597 10598 10596 10597 10600 10604 10603 10601 10606 10609 10611 10613 10611 10610 10612 10615 10616 10616 10616 10617 10618 10620 10620 10622 10623 10624 10626 10627 10627 10628 10627 10627 10627 10627 10626 10626 10626 10626 10627 10629 10629 10628 10627 10625 10624 10624 10622 10621 10621 10620 10620 10619 10618 10618 10617 10616 10615 10614 10614
10568 10573 10575 10572 10570 10572 10575 10576 10578 10580 10581 10581 10582 10581 10579 10579 10580 10583 10586 10587 10589 10588 10587 10588 10591 10591 10590 10592 10592 10591 10594 10596 10597 10596 10595 10598 10602 10607 10609 10607 10606 10608 10610 10610 10611 10613 10613 10614 10616 10616 10617 10620 10621 10623 10624 10625 10625 10625 10625 10625 10625 10624 10624 10624 10624 10624 10625 10626 10625 10623 10622 10620 10620 10620 10618 10617 10617 10616 10615 10614 10614 10613 10613 10612 10611 10610
10563 10569 10569 10564 10564 10568 10570 10571 10573 10574 10575 10576 10577 10576 10574 10574 10576 10577 10579 10582 10583 10580 10582 10587 10587 10585 10586 10586 10585 10587 10589 10592 10592 10589 10589 10591 10594 10600 10603 10603 10604 10605 10605 10606 10608 10609 10609 10609 10610 10611 10613 10616 10618 10619 10620 10621 10622 10621 10621 10622 10622 10621 10621 10622 10621 10620 10621 10623 10622 10620 10618 10617 10617 10617 10616 10615 10614 10613 10612 10611 10611 10610 10609 10608 10608 10607
10558 10563 10563 10559 10560 10563 10565 10566 10568 10570 10570 10571 10570 10570 10571 10571 10571 10571 10573 10576 10577 10575 10578 10582 10581 10580 10581 10580 10580 10583 10584 10588 10589 10585 10585 10586 10587 10592 10597 10598 10599 10600 10600 10602 10604 10604 10604 10605 10606 10607 10608 10610 10611 10613 10615 10617 10617 10617 10617 10617 10618 10618 10618 10619 10618 10617 10617 10619 10619 10617 10616 10614 10614 10614 10613 10612 10611 10610 10610 10609 10608 10607 10606 10605 10604 10604
10553 10557 10558 10557 10556 10558 10560 10561 10564 10565 10565 10565 10565 10566 10567 10565 10565 10566 10568 10570 10572 10572 10573 10575 10575 10575 10575 10574 10575 10578 10579 10582 10585 10582 10580 10581 10581 10585 10590 10593 10594 10595 10595 10597 10598 10598 10599 10600 10600 10600 10601 10603 10605 10608 10610 10610 10611 10612 10611 10612 10614 10614 10615 10615 10614 10613 10613 10614 10614 10614 10612 10611 10611 10610 10610 10609 10609 10608 10607 10607 10606 10605 10604 10603 10602 10601
10548 10552 10555 10553 10551 10553 10556 10557 10559 10561 10560 10560 10560 10561 10561 10560 10560 10562 10564 10565 10567 10568 10568 10566 10567 10571 10572 10571 10570 10573 10575 10577 10580 10579 10577 10576 10575 10579 10584 10587 10589 10590 10590 10591 10593 10593 10592 10591 10591 10592 10594 10597 10600 10602 10603 10603 10605 10607 10606 10607 10608 10609 10609 10610 10610 10609 10607 10608 10609 10609 10608 10607 10607 10606 10606 10606 10605 10605 10605 10604 10603 10602 10601 10600 10600 10599
10544 10548 10550 10549 10547 10548 10551 10553 10555 10555 10554 10554 10554 10555 10556 10555 10556 10558 10559 10560 10561 10563 10562 10558 10560 10567 10569 10567 10567 10568 10568 10570 10573 10574 10573 10571 10570 10574 10576 10579 10582 10586 10588 10589 10589 10588 10585 10583 10583 10586 10590 10592 10594 10596 10597 10598 10599 10601 10601 10600 10602 10602 10602 10603 10604 10604 10603 10602 10603 10603 10603 10602 10602 10602 10602 10601 10601 10602 10601 10601 10600 10599 10599 10598 10597 10596
10540 10544 10544 10543 10543 10544 10545 10548 10550 10549 10547 10548 10549 10550 10551 10550 10552 10554 10555 10556 10557 10558 10556 10553 10555 10561 10564 10563 10562 10561 10561 10565 10567 10567 10568 10567 10566 10568 10568 10570 10576 10583 10587 10588 10585 10581 10578 10576 10578 10583 10587 10588 10589 10590 10591 10593 10594 10595 10595 10594 10594 10595 10595 10596 10598 10599 10598 10596 10596 10597 10597 10596 10595 10596 10596 10596 10596 10597 10597 10597 10597 10596 10596 10595 10595 10594
10535 10538 10538 10538 10538 10539 10540 10543 10544 10542 10542 10543 10544 10546 10546 10545 10548 10550 10550 10551 10552 10552 10551 10550 10552 10555 10557 10557 10557 10556 10556 10560 10561 10560 10562 10563 10562 10561 10560 10563 10570 10577 10580 10581 10580 10576 10575 10575 10575 10577 10580 10582 10585 10586 10587 10588 10588 10589 10590 10588 10587 10588 10589 10590 10591 10593 10593 10591 10589 10589 10590 10590 10589 10589 10590 10590 10591 10592 10592 10592 10593 10593 10593 10592 10592 10591
10529 10531 10533 10534 10533 10533 10534 10538 10538 10537 10538 10539 10539 10540 10541 10541 10542 10544 10545 10545 10546 10548 10547 10547 10548 10549 10550 10550 10551 10550 10550 10554 10555 10553 10555 10558 10556 10555 10556 10561 10566 10567 10567 10569 10572 10573 10574 10575 10574 10572 10573 10575 10578 10581 10583 10584 10584 10585 10585 10584 10582 10581 10582 10585 10586 10586 10586 10585 10583 10583 10583 10583 10583 10583 10583 10583 10584 10586 10586 10587 10587 10588 10588 10588 10588 10587
10525 10527 10528 10528 10528 10530 10530 10531 10531 10531 10533 10534 10533 10535 10536 10536 10537 10538 10540 10539 10541 10545 10543 10541 10543 10542 10543 10544 10543 10543 10545 10547 10547 10547 10550 10551 10549 10550 10554 10559 10561 10557 10554 10559 10565 10567 10568 10569 10570 10571 10571 10570 10571 10575 10578 10579 10581 10582 10582 10581 10579 10577 10578 10582 10582 10580 10579 10578 10576 10576 10576 10577 10577 10577 10576 10577 10577 10579 10580 10581 10581 10582 10583 10583 10583 10583
10521 10521 10521 10521 10523 10528 10526 10523 10524 10525 10528 10528 10528 10530 10530 10531 10532 10533 10534 10534 10537 10540 10537 10536 10537 10536 10537 10538 10536 10536 10538 10539 10540 10542 10543 10543 10543 10546 10551 10553 10552 10547 10546 10552 10556 10557 10558 10560 10562 10565 10568 10567 10567 10569 10572 10574 10577 10580 10579 10578 10577 10576 10576 10578 10578 10574 10571 10570 10569 10569 10570 10570 10571 10571 10570 10571 10571 10572 10573 10574 10575 10576 10576 10577 10577 10577
10515 10514 10514 10515 10519 10522 10519 10517 10519 10520 10521 10523 10521 10521 10524 10526 10526 10527 10528 10529 10531 10533 10531 10530 10531 10530 10531 10532 10530 10530 10530 10531 10534 10536 10534 10534 10537 10541 10544 10544 10543 10540 10541 10545 10547 10548 10550 10551 10552 10556 10560 10562 10563 10564 10566 10569 10572 10575 10577 10575 10574 10574 10572 10571 10570 10564 10561 10561 10561 10562 10563 10564 10565 10565 10564 10564 10564 10565 10566 10567 10569 10569 10570 10571 10571 10571
10509 10508 10508 10511 10513 10513 10512 10514 10514 10514 10514 10515 10513 10514 10519 10521 10520 10521 10522 10522 10524 10525 10524 10525 10525 10525 10526 10525 10525 10525 10524 10524 10527 10528 10527 10528 10531 10533 10534 10534 10533 10535 10537 10539 10540 10540 10541 10542 10544 10547 10550 10553 10555 10557 10560 10563 10566 10569 10572 10572 10570 10569 10567 10563 10558 10553 10553 10555 10556 10557 10557 10558 10558 10558 10557 10556 10557 10558 10558 10560 10562 10563 10563 10564 10564 10564
10504 10503 10503 10506 10504 10504 10508 10509 10508 10508 10508 10506 10506 10509 10513 10514 10513 10515 10515 10515 10517 10518 10518 10518 10519 10519 10519 10519 10519 10519 10517 10517 10518 10521 10522 10523 10525 10526 10524 10523 10525 10528 10530 10531 10532 10533 10534 10535 10536 10537 10540 10543 10546 10549 10551 10554 10558 10561 10564 10567 10567 10567 10566 10559 10549 10545 10548 10551 10551 10551 10552 10552 10552 10552 10551 10549 10549 10551 10552 10553 10555 10557 10557 10557 10558 10558
10499 10498 10499 10500 10495 10497 10503 10502 10500 10500 10500 10500 10500 10503 10506 10506 10506 10508 10508 10508 10510 10510 10511 10512 10512 10513 10512 10513 10514 10513 10511 10509 10508 10512 10515 10517 10521 10519 10513 10514 10519 10520 10521 10523 10525 10526 10527 10528 10528 10528 10530 10534 10537 10540 10542 10544 10548 10552 10556 10560 10562 10563 10564 10556 10543 10540 10543 10544 10544 10544 10545 10546 10546 10545 10545 10544 10543 10543 10545 10546 10548 10549 10551 10551 10551 10552
10494 10493 10493 10491 10487 10490 10493 10494 10494 10494 10494 10495 10494 10494 10496 10497 10498 10500 10501 10501 10502 10503 10504 10505 10505 10506 10506 10505 10506 10505 10504 10502 10501 10502 10504 10509 10515 10511 10504 10508 10513 10512 10513 10516 10517 10519 10520 10520 10520 10520 10522 10525 10528 10530 10532 10534 10537 10542 10546 10550 10553 10554 10555 10550 10541 10537 10537 10537 10537 10536 10536 10538 10538 10537 10538 10539 10538 10536 10536 10539 10541 10542 10543 10544 10545 10545
10487 10487 10485 10481 10480 10482 10482 10486 10491 10489 10486 10486 10486 10486 10487 10488 10491 10493 10494 10494 10494 10496 10498 10498 10498 10498 10499 10498 10497 10496 10495 10495 10495 10494 10494 10499 10505 10503 10498 10501 10506 10506 10507 10508 10509 10512 10513 10513 10513 10514 10515 10516 10518 10521 10523 10525 10527 10531 10534 10539 10542 10543 10543 10541 10537 10534 10531 10531 10532 10529 10528 10530 10530 10530 10532 10532 10532 10530 10529 10532 10535 10536 10536 10537 10538 10537
10476 10478 10477 10473 10472 10474 10475 10478 10482 10480 10477 10477 10478 10478 10479 10482 10484 10486 10488 10486 10486 10488 10490 10491 10490 10490 10490 10490 10489 10487 10486 10487 10487 10487 10488 10491 10495 10495 10492 10494 10498 10500 10500 10501 10502 10504 10506 10506 10507 10508 10508 10509 10510 10512 10514 10516 10518 10520 10523 10527 10530 10532 10532 10531 10531 10528 10525 10524 10525 10522 10522 10524 10524 10523 10524 10524 10524 10524 10524 10525 10528 10530 10530 10530 10530 10530
10463 10466 10469 10468 10467 10469 10470 10470 10468 10466 10469 10472 10471 10471 10476 10478 10477 10478 10479 10479 10478 10479 10481 10482 10481 10480 10481 10482 10482 10480 10479 10479 10479 10480 10482 10484 10486 10487 10485 10486 10489 10492 10493 10494 10495 10497 10498 10500 10500 10501 10502 10503 10504 10505 10506 10507 10509 10510 10513 10515 10518 10520 10521 10521 10521 10520 10518 10517 10517 10516 10517 10520 10521 10519 10515 10513 10514 10517 10518 10520 10521 10522 10522 10522 10523 10522
10453 10456 10461 10463 10463 10463 10462 10459 10456 10454 10461 10469 10468 10467 10470 10469 10468 10469 10469 10469 10471 10471 10472 10473 10471 10470 10473 10475 10474 10473 10472 10471 10472 10474 10475 10476 10479 10480 10479 10479 10480 10482 10485 10487 10488 10489 10491 10492 10493 10494 10496 10496 10497 10499 10499 10500 10500 10501 10503 10505 10507 10509 10509 10510 10511 10510 10509 10509 10510 10510 10510 10512 10514 10512 10505 10503 10507 10511 10512 10512 10513 10513 10513 10514 10514 10513
10444 10447 10453 10455 10455 10456 10453 10450 10448 10448 10453 10459 10461 10461 10460 10457 10458 10461 10460 10461 10464 10463 10464 10465 10461 10461 10465 10467 10467 10466 10464 10463 10465 10467 10468 10469 10471 10472 10472 10472 10472 10473 10476 10478 10479 10481 10483 10485 10486 10487 10488 10489 10490 10491 10491 10492 10493 10494 10494 10495 10496 10498 10499 10499 10500 10500 10500 10500 10501 10502 10501 10501 10502 10501 10498 10498 10501 10504 10504 10505 10505 10505 10505 10505 10505 10505
10434 10437 10441 10443 10446 10448 10445 10442 10441 10441 10444 10447 10450 10453 10454 10451 10451 10451 10451 10456 10456 10455 10457 10456 10453 10454 10456 10457 10458 10458 10456 10455 10456 10458 10460 10462 10464 10464 10465 10466 10464 10464 10467 10469 10471 10473 10476 10478 10479 10480 10482 10482 10482 10482 10483 10484 10485 10485 10486 10486 10487 10488 10489 10490 10490 10490 10491 10491 10492 10493 10493 10493 10492 10492 10491 10492 10494 10495 10496 10497 10497 10497 10497 10497 10497 10496
10425 10426 10429 10433 10437 10439 10437 10435 10433 10433 10436 10438 10441 10445 10447 10446 10445 10443 10444 10446 10446 10448 10450 10447 10446 10448 10447 10445 10446 10447 10450 10450 10448 10448 10450 10453 10456 10458 10459 10459 10457 10456 10459 10461 10462 10464 10467 10469 10471 10473 10475 10475 10474 10473 10474 10475 10476 10476 10477 10478 10479 10479 10480 10480 10481 10482 10482 10482 10483 10484 10484 10484 10485 10485 10484 10484 10486 10487 10488 10488 10489 10489 10489 10489 10489 10489
10418 10419 10420 10423 10427 10429 10429 10429 10426 10425 10427 10430 10433 10437 10438 10437 10436 10437 10438 10436 10436 10442 10445 10441 10439 10441 10438 10434 10434 10437 10443 10445 10443 10441 10441 10443 10446 10449 10452 10453 10451 10450 10451 10452 10453 10456 10458 10460 10462 10464 10467 10468 10467 10466 10465 10465 10466 10466 10466 10467 10469 10470 10471 10472 10473 10474 10474 10474 10474 10475 10475 10476 10476 10476 10477 10477 10478 10479 10479 10481 10481 10481 10481 10481 10481 10482
10412 10412 10413 10416 10418 10420 10420 10420 10419 10418 10419 10422 10426 10428 10428 10426 10427 10429 10431 10430 10431 10434 10435 10432 10430 10431 10428 10426 10425 10428 10434 10437 10437 10436 10434 10434 10435 10439 10443 10446 10446 10445 10444 10443 10444 10446 10447 10449 10452 10455 10457 10459 10460 10458 10457 10457 10457 10456 10456 10457 10459 10460 10462 10464 10465 10466 10466 10466 10466 10467 10466 10466 10466 10467 10468 10469 10470 10471 10471 10473 10473 10473 10473 10473 10473 10474
10406 10403 10406 10410 10411 10412 10411 10409 10410 10410 10412 10417 10420 10419 10418 10418 10419 10420 10421 10422 10423 10423 10423 10422 10420 10419 10419 10420 10422 10422 10424 10428 10430 10430 10428 10426 10426 10429 10433 10436 10436 10436 10436 10435 10436 10437 10439 10439 10441 10445 10448 10450 10450 10450 10449 10449 10449 10448 10446 10447 10450 10451 10452 10455 10456 10457 10457 10457 10458 10459 10459 10457 10457 10458 10459 10460 10460 10462 10463 10464 10465 10465 10465 10465 10465 10466
10399 10395 10398 10402 10402 10404 10403 10402 10403 10404 10407 10412 10412 10409 10408 10409 10410 10410 10410 10411 10412 10414 10415 10413 10411 10409 10410 10415 10418 10416 10417 10420 10421 10419 10417 10417 10417 10418 10422 10426 10427 10427 10427 10427 10429 10430 10432 10433 10433 10434 10436 10438 10439 10440 10439 10439 10441 10440 10437 10438 10441 10442 10443 10444 10445 10446 10448 10448 10449 10451 10451 10450 10449 10450 10450 10450 10450 10452 10453 10454 10455 10456 10457 10457 10457 10457
10393 10389 10390 10393 10395 10396 10396 10396 10397 10399 10403 10405 10401 10399 10400 10401 10402 10402 10402 10402 10402 10405 10407 10403 10400 10401 10404 10408 10408 10406 10410 10414 10412 10408 10406 10407 10408 10409 10412 10416 10419 10419 10418 10417 10418 10420 10423 10426 10428 10427 10424 10423 10426 10427 10427 10430 10435 10434 10429 10430 10433 10432 10431 10432 10434 10436 10438 10439 10439 10440 10441 10441 10441 10441 10442 10441 10441 10442 10443 10444 10445 10446 10447 10447 10447 10448
10385 10386 10384 10385 10388 10389 10390 10391 10391 10394 10398 10396 10390 10391 10395 10396 10396 10396 10396 10394 10391 10394 10396 10391 10389 10393 10397 10399 10400 10400 10404 10406 10404 10401 10398 10398 10402 10402 10401 10403 10406 10408 10409 10407 10406 10408 10411 10416 10421 10420 10416 10415 10415 10414 10415 10421 10428 10428 10423 10421 10421 10420 10420 10422 10424 10426 10427 10427 10429 10430 10430 10431 10432 10432 10432 10432 10432 10433 10433 10433 10434 10435 10436 10437 10437 10438
10377 10379 10378 10378 10381 10384 10384 10385 10385 10387 10389 10384 10382 10386 10389 10389 10390 10388 10387 10384 10380 10381 10384 10381 10382 10388 10390 10390 10394 10397 10397 10397 10396 10393 10388 10389 10394 10395 10391 10390 10392 10394 10397 10398 10398 10399 10400 10404 10408 10410 10409 10409 10407 10404 10407 10413 10418 10418 10414 10412 10412 10411 10411 10412 10414 10415 10416 10416 10417 10419 10420 10421 10421 10421 10421 10422 10422 10423 10423 10423 10424 10424 10425 10426 10426 10427
10368 10369 10369 10371 10375 10377 10377 10377 10378 10380 10378 10374 10377 10381 10381 10381 10382 10381 10377 10374 10372 10373 10375 10374 10377 10384 10384 10382 10386 10390 10389 10387 10387 10384 10380 10380 10386 10388 10384 10381 10381 10381 10383 10387 10390 10390 10391 10392 10393 10395 10398 10401 10400 10399 10401 10404 10406 10405 10403 10404 10406 10404 10402 10402 10404 10405 10406 10407 10407 10407 10408 10409 10410 10410 10410 10410 10411 10412 10412 10413 10413 10413 10414 10415 10416 10416
10358 10359 10360 10362 10366 10368 10368 10369 10373 10373 10370 10367 10369 10372 10373 10373 10373 10373 10369 10366 10366 10368 10369 10369 10371 10375 10376 10375 10377 10379 10379 10376 10376 10376 10375 10374 10377 10379 10377 10374 10372 10371 10371 10374 10377 10379 10381 10382 10380 10381 10386 10392 10394 10393 10393 10394 10395 10396 10394 10394 10396 10395 10394 10393 10394 10395 10397 10399 10398 10397 10396 10397 10398 10398 10398 10397 10398 10399 10400 10401 10401 10402 10403 10404 10405 10406
10347 10347 10349 10352 10356 10359 10359 10361 10364 10364 10362 10360 10360 10363 10366 10364 10363 10364 10362 10358 10360 10364 10364 10363 10363 10364 10367 10368 10368 10367 10365 10364 10366 10369 10371 10370 10369 10370 10369 10367 10364 10362 10362 10364 10365 10366 10369 10371 10370 10369 10374 10381 10383 10383 10383 10383 10385 10387 10386 10383 10383 10384 10385 10387 10387 10386 10387 10388 10389 10388 10386 10387 10387 10387 10387 10387 10386 10386 10386 10387 10388 10389 10390 10392 10393 10394
10336 10335 10338 10342 10346 10349 10350 10351 10353 10352 10351 10351 10352 10355 10357 10354 10351 10354 10353 10352 10355 10357 10357 10357 10356 10355 10356 10358 10357 10356 10354 10353 10358 10363 10364 10362 10361 10360 10358 10357 10357 10354 10353 10354 10355 10355 10357 10360 10360 10359 10361 10367 10371 10371 10372 10373 10375 10377 10377 10375 10374 10375 10377 10378 10378 10377 10376 10376 10378 10378 10377 10377 10376 10376 10376 10376 10375 10375 10374 10375 10375 10376 10377 10378 10380 10382
10327 10326 10328 10332 10335 10337 10338 10339 10340 10341 10341 10342 10343 10344 10347 10346 10343 10342 10343 10346 10348 10348 10348 10350 10348 10346 10346 10346 10346 10346 10345 10345 10350 10355 10354 10352 10350 10349 10347 10348 10348 10347 10344 10344 10345 10346 10347 10347 10349 10349 10351 10355 10358 10359 10360 10362 10365 10367 10367 10366 10366 10366 10367 10367 10367 10366 10366 10366 10367 10367 10366 10366 10365 10364 10365 10365 10365 10364 10364 10364 10364 10364 10364 10365 10367 10369
10318 10317 10318 10321 10323 10324 10326 10327 10327 10328 10330 10332 10332 10334 10337 10338 10334 10331 10332 10336 10338 10337 10338 10340 10339 10336 10336 10336 10336 10336 10337 10338 10340 10342 10342 10340 10338 10336 10337 10338 10338 10337 10335 10334 10335 10337 10337 10336 10337 10339 10341 10344 10345 10347 10349 10352 10354 10356 10355 10355 10355 10355 10356 10356 10355 10355 10355 10355 10355 10354 10354 10354 10353 10353 10353 10353 10354 10354 10353 10353 10353 10352 10353 10353 10354 10357
10309 10309 10309 10311 10312 10313 10314 10315 10314 10315 10318 10320 10321 10323 10326 10326 10323 10322 10323 10323 10324 10325 10328 10329 10328 10327 10327 10327 10328 10328 10327 10327 10328 10327 10326 10326 10325 10324 10324 10326 10327 10327 10326 10325 10325 10326 10327 10326 10326 10328 10330 10332 10334 10336 10338 10340 10342 10344 10345 10345 10344 10344 10344 10344 10344 10343 10342 10342 10342 10342 10342 10342 10342 10342 10341 10341 10342 10342 10342 10343 10342 10342 10341 10341 10342 10345
10298 10300 10301 10301 10303 10304 10303 10301 10301 10302 10303 10306 10308 10311 10314 10314 10314 10314 10313 10312 10313 10315 10316 10315 10314 10315 10317 10317 10317 10316 10314 10313 10313 10311 10311 10313 10314 10314 10313 10314 10315 10316 10316 10315 10315 10315 10315 10315 10316 10317 10318 10320 10322 10324 10326 10327 10330 10333 10336 10336 10334 10331 10330 10330 10329 10328 10328 10328 10329 10329 10330 10330 10331 10330 10330 10329 10329 10330 10330 10331 10331 10331 10330 10329 10331 10334
10286 10290 10293 10293 10294 10296 10292 10287 10288 10288 10287 10291 10296 10298 10301 10303 10303 10304 10304 10304 10304 10303 10301 10300 10298 10298 10300 10302 10303 10303 10303 10302 10301 10301 10301 10302 10302 10303 10303 10302 10302 10302 10303 10303 10304 10304 10304 10303 10305 10306 10307 10308 10309 10310 10312 10314 10318 10321 10324 10325 10323 10319 10317 10315 10315 10314 10314 10315 10317 10318 10319 10319 10319 10318 10317 10316 10316 10316 10317 10319 10320 10321 10319 10319 10321 10323
10277 10280 10284 10283 10282 10284 10280 10275 10277 10277 10274 10278 10284 10286 10287 10289 10289 10290 10292 10292 10290 10287 10285 10284 10283 10283 10285 10288 10291 10293 10293 10293 10293 10293 10292 10290 10289 10289 10290 10290 10290 10290 10290 10290 10290 10291 10291 10293 10296 10299 10298 10297 10296 10296 10297 10300 10303 10305 10307 10308 10308 10307 10304 10303 10303 10303 10303 10304 10305 10306 10306 10306 10305 10305 10304 10303 10303 10304 10306 10308 10310 10310 10310 10310 10310 10310
10269 10270 10271 10271 10270 10271 10269 10266 10267 10269 10267 10267 10269 10269 10270 10273 10274 10276 10279 10277 10274 10273 10271 10271 10273 10274 10275 10276 10277 10279 10280 10281 10282 10282 10280 10278 10277 10276 10277 10278 10278 10277 10277 10277 10278 10278 10279 10282 10287 10290 10289 10287 10285 10283 10283 10285 10286 10287 10289 10291 10293 10294 10293 10293 10292 10292 10292 10292 10292 10291 10291 10292 10292 10292 10292 10291 10292 10293 10296 10299 10300 10301 10300 10299 10297 10298
10262 10260 10259 10259 10260 10260 10258 10256 10258 10260 10256 10253 10251 10251 10255 10259 10261 10264 10265 10264 10263 10263 10262 10262 10262 10262 10262 10262 10261 10263 10265 10266 10267 10268 10267 10267 10267 10265 10265 10265 10265 10264 10263 10264 10265 10266 10269 10272 10275 10276 10276 10276 10275 10273 10272 10272 10272 10273 10275 10277 10278 10279 10280 10281 10280 10280 10279 10279 10278 10278 10279 10279 10280 10280 10279 10280 10281 10284 10288 10291 10290 10289 10289 10289 10288 10289
10253 10253 10251 10250 10249 10247 10245 10244 10247 10247 10244 10241 10239 10240 10243 10247 10248 10250 10252 10253 10253 10253 10252 10251 10250 10249 10248 10247 10246 10248 10251 10251 10252 10253 10255 10256 10255 10254 10253 10252 10253 10252 10252 10251 10251 10254 10258 10260 10260 10260 10262 10264 10264 10263 10262 10261 10261 10261 10262 10263 10264 10265 10266 10267 10267 10267 10267 10267 10266 10267 10267 10268 10269 10268 10268 10269 10272 10275 10278 10280 10279 10278 10279 10279 10279 10281
10243 10244 10243 10240 10236 10234 10233 10234 10236 10237 10235 10232 10231 10231 10232 10235 10236 10238 10239 10239 10240 10240 10240 10239 10238 10237 10236 10235 10234 10235 10237 10238 10238 10240 10242 10243 10243 10242 10241 10241 10241 10241 10240 10239 10239 10242 10244 10246 10247 10248 10249 10251 10251 10251 10251 10251 10251 10251 10250 10250 10250 10252 10254 10255 10255 10255 10256 10257 10257 10257 10257 10258 10257 10256 10258 10262 10265 10266 10266 10267 10268 10268 10269 10270 10271 10274
10233 10232 10232 10229 10226 10225 10226 10227 10228 10228 10225 10222 10221 10221 10222 10224 10226 10227 10227 10226 10226 10227 10227 10227 10226 10225 10225 10225 10225 10225 10226 10226 10226 10226 10227 10229 10229 10229 10230 10230 10230 10229 10228 10228 10229 10230 10231 10233 10235 10236 10237 10237 10238 10239 10239 10240 10240 10239 10239 10239 10239 10240 10242 10244 10245 10245 10246 10246 10246 10247 10247 10247 10246 10246 10248 10254 10256 10255 10255 10256 10257 10258 10260 10262 10264 10265
10223 10222 10221 10220 10219 10219 10220 10219 10220 10219 10215 10213 10212 10212 10212 10214 10216 10216 10216 10215 10215 10215 10215 10215 10215 10215 10215 10215 10215 10215 10216 10216 10215 10213 10214 10215 10215 10216 10218 10219 10218 10218 10217 10218 10219 10219 10220 10220 10221 10222 10224 10225 10226 10227 10228 10229 10228 10227 10227 10228 10229 10229 10231 10232 10234 10235 10236 10235 10235 10236 10237 10237 10237 10238 10241 10245 10246 10245 10245 10247 10248 10250 10252 10253 10254 10255